sat.trackr.live / text

‹ back to catalog

STARLINK-32794

NORAD 62844 · 2025-019R

PAYLOAD ACTIVE UNKNOWN

§ Identity

Operator
Country
US
Launch date
2025-01-27
Launch site
AFETR
Launch vehicle
Mass (kg)
RCS (m²)

Purposes: comms

External: N2YO · Heavens-Above · Gunter

§ Orbital elements

Epoch: 2026-05-25T00:48:59.067072Z

Period
94.26 min
Inclination
43.0050°
Eccentricity
0.0001442
Mean motion
15.27630587 rev/d
Perigee alt
481.9 km
Apogee alt
483.9 km
Semi-major
6,861.0 km
B*
7.9797e-4
RAAN
18.0995°
Arg perigee
264.4343°
Mean anomaly
95.6344°
Rev number
7,392

§ Raw data

STARLINK-327941 62844U 25019R   26145.03401698  .00021795  00000+0  79797-3 0  99952 62844  43.0050  18.0995 0001442 264.4343  95.6344 15.27630587 73923

JSON: /api/v1/satellites/62844 · /tle

For live sub-satellite position, see the globe view (requires WebGL).

§ Visibility from observer

Set your observer location to see the next 7 days of passes ≥ 10°. The values pass through the URL so the page stays shareable.

No JS? Fill the form by hand. The geolocation button needs JavaScript.